Weather History for Porterville, CA

Change the Weather History Date:

Sunday, August 4, 2013

  Actual Average Record
Temperature  
Mean Temperature 78 °F -  
Max Temperature 96 °F 99 °F 108 °F (1955)
Min Temperature 59 °F 66 °F 53 °F (1953)
Cooling Degree Days 12    
Growing Degree Days 28 (Base 50)    
Moisture  
Dew Point 39 °F    
Average Humidity 26    
Maximum Humidity 33    
Minimum Humidity 18    
Precipitation  
Precipitation 0.00 in - - ()
Sea Level Pressure  
Sea Level Pressure 29.91 in    
Wind  
Wind Speed 7 mph (SW)    
Max Wind Speed 13 mph    
Max Gust Speed -    
Visibility 10 miles    
Events      
Averages and records for this station are not official NWS values.
T = Trace of Precipitation, MM = Missing Value Source: NWS Daily Summary

Daily Weather History Graph

Daily Weather History Graph

Search for Another Location

Airport:

Trip Planner

Search our weather history database for the weather conditions in past years. The results will help you decide how hot, cold, wet, or windy it might be!

Date:

Astronomy

Aug. 04, 2013 Rise Set
Actual Time 6:06 AM PDT 7:57 PM PDT
Civil Twilight 5:38 AM PDT 8:25 PM PDT
Nautical Twilight 5:04 AM PDT 8:59 PM PDT
Astronomical Twilight 4:27 AM PDT 9:35 PM PDT
Moon 4:12 AM PDT (8/4) 6:24 PM PDT (8/4)
Length of Visible Light 14h 47m
Length of Day
13h 51m
Waning Crescent, 4% of the Moon is Illuminated
Aug 4
Waning Crescent
Aug 6
New
Aug 14
First Quarter
Aug 20
Full
Aug 28
Last Quarter

Hourly Weather History & Observations

Time (PDT) Temp. Dew Point Humidity Pressure Visibility Wind Dir Wind Speed Gust Speed Precip Events Conditions
12:15 AM 66.2 °F 33.8 °F 30% 29.91 in 10.0 mi ESE 5.8 mph - N/A   Clear
12:35 AM 66.2 °F 33.8 °F 30% 29.91 in 10.0 mi SE 6.9 mph - N/A   Clear
12:55 AM 66.2 °F 32.0 °F 28% 29.91 in 10.0 mi SE 8.1 mph - N/A   Clear
1:15 AM 66.2 °F 32.0 °F 28% 29.91 in 10.0 mi SE 5.8 mph - N/A   Clear
1:35 AM 64.4 °F 32.0 °F 30% 29.91 in 10.0 mi SE 3.5 mph - N/A   Clear
1:55 AM 64.4 °F 32.0 °F 30% 29.90 in 10.0 mi South 5.8 mph - N/A   Clear
2:15 AM 64.4 °F 30.2 °F 28% 29.90 in 10.0 mi SSE 5.8 mph - N/A   Clear
2:35 AM 64.4 °F 30.2 °F 28% 29.90 in 10.0 mi South 4.6 mph - N/A   Clear
2:55 AM 62.6 °F 30.2 °F 30% 29.91 in 10.0 mi SSE 3.5 mph - N/A   Clear
3:15 AM 64.4 °F 30.2 °F 28% 29.91 in 10.0 mi SSE 3.5 mph - N/A   Clear
3:35 AM 62.6 °F 30.2 °F 30% 29.91 in 10.0 mi SSE 4.6 mph - N/A   Clear
3:55 AM 62.6 °F 30.2 °F 30% 29.91 in 10.0 mi SSE 5.8 mph - N/A   Clear
4:15 AM 62.6 °F 30.2 °F 30% 29.91 in 10.0 mi SSE 6.9 mph - N/A   Clear
4:35 AM 60.8 °F 28.4 °F 29% 29.91 in 10.0 mi SSE 8.1 mph - N/A   Clear
4:55 AM 60.8 °F 26.6 °F 27% 29.91 in 10.0 mi SSE 8.1 mph - N/A   Clear
5:15 AM 60.8 °F 26.6 °F 27% 29.92 in 10.0 mi SSE 9.2 mph - N/A   Clear
5:35 AM 60.8 °F 26.6 °F 27% 29.93 in 10.0 mi South 6.9 mph - N/A   Clear
5:55 AM 59.0 °F 26.6 °F 29% 29.93 in 10.0 mi SSE 8.1 mph - N/A   Clear
6:15 AM 60.8 °F 26.6 °F 27% 29.94 in 10.0 mi South 6.9 mph - N/A   Clear
6:35 AM 60.8 °F 28.4 °F 29% 29.95 in 10.0 mi South 5.8 mph - N/A   Clear
6:55 AM 60.8 °F 30.2 °F 31% 29.95 in 10.0 mi SE 4.6 mph - N/A   Clear
7:15 AM 64.4 °F 32.0 °F 30% 29.95 in 10.0 mi SSE 5.8 mph - N/A   Clear
7:35 AM 66.2 °F 33.8 °F 30% 29.96 in 10.0 mi SSE 5.8 mph - N/A   Clear
7:55 AM 68.0 °F 35.6 °F 30% 29.96 in 10.0 mi SSE 4.6 mph - N/A   Clear
8:15 AM 69.8 °F 35.6 °F 28% 29.96 in 10.0 mi SSE 5.8 mph - N/A   Clear
8:35 AM 71.6 °F 37.4 °F 29% 29.97 in 10.0 mi South 6.9 mph - N/A   Clear
8:55 AM 73.4 °F 37.4 °F 27% 29.96 in 10.0 mi SSW 6.9 mph - N/A   Clear
9:15 AM 75.2 °F 39.2 °F 27% 29.96 in 10.0 mi SSW 8.1 mph - N/A   Clear
9:35 AM 78.8 °F 39.2 °F 24% 29.96 in 10.0 mi SSW 9.2 mph - N/A   Clear
9:55 AM 78.8 °F 39.2 °F 24% 29.96 in 10.0 mi SSW 9.2 mph - N/A   Clear
10:15 AM 80.6 °F 41.0 °F 24% 29.96 in 10.0 mi SSW 6.9 mph - N/A   Clear
10:35 AM 82.4 °F 42.8 °F 25% 29.95 in 10.0 mi SSW 9.2 mph - N/A   Clear
10:55 AM 82.4 °F 42.8 °F 25% 29.95 in 10.0 mi South 8.1 mph - N/A   Clear
11:15 AM 82.4 °F 44.6 °F 26% 29.95 in 10.0 mi SW 9.2 mph - N/A   Clear
11:35 AM 82.4 °F 44.6 °F 26% 29.95 in 10.0 mi WSW 9.2 mph - N/A   Clear
11:55 AM 84.2 °F 44.6 °F 25% 29.95 in 10.0 mi WSW 5.8 mph - N/A   Clear
12:15 PM 86.0 °F 46.4 °F 25% 29.95 in 10.0 mi WNW 8.1 mph - N/A   Clear
12:35 PM 86.0 °F 46.4 °F 25% 29.95 in 10.0 mi West 6.9 mph - N/A   Clear
12:55 PM 87.8 °F 46.4 °F 24% 29.94 in 10.0 mi West 8.1 mph - N/A   Clear
1:15 PM 89.6 °F 48.2 °F 24% 29.93 in 10.0 mi West 6.9 mph - N/A   Clear
1:35 PM 89.6 °F 48.2 °F 24% 29.93 in 10.0 mi NW 9.2 mph - N/A   Clear
1:55 PM 89.6 °F 48.2 °F 24% 29.92 in 10.0 mi NW 8.1 mph - N/A   Clear
2:15 PM 91.4 °F 48.2 °F 23% 29.92 in 10.0 mi WNW 9.2 mph - N/A   Clear
2:35 PM 93.2 °F 46.4 °F 20% 29.91 in 10.0 mi WNW 9.2 mph - N/A   Clear
2:55 PM 93.2 °F 48.2 °F 21% 29.90 in 10.0 mi WNW 9.2 mph - N/A   Clear
3:15 PM 95.0 °F 46.4 °F 19% 29.89 in 10.0 mi NNW 10.4 mph - N/A   Clear
3:35 PM 95.0 °F 44.6 °F 18% 29.88 in 10.0 mi NW 10.4 mph - N/A   Clear
3:55 PM 93.2 °F 44.6 °F 19% 29.88 in 10.0 mi NW 12.7 mph - N/A   Clear
4:15 PM 96.8 °F 46.4 °F 18% 29.87 in 10.0 mi WNW 11.5 mph - N/A   Clear
4:35 PM 95.0 °F 46.4 °F 19% 29.87 in 10.0 mi WNW 6.9 mph - N/A   Clear
4:55 PM 95.0 °F 46.4 °F 19% 29.86 in 10.0 mi NW 9.2 mph - N/A   Clear
5:15 PM 95.0 °F 48.2 °F 20% 29.86 in 10.0 mi NW 8.1 mph - N/A   Clear
5:35 PM 95.0 °F 48.2 °F 20% 29.86 in 10.0 mi NW 10.4 mph - N/A   Clear
5:55 PM 95.0 °F 46.4 °F 19% 29.85 in 10.0 mi NNW 9.2 mph - N/A   Clear
6:15 PM 95.0 °F 44.6 °F 18% 29.85 in 10.0 mi NW 10.4 mph - N/A   Clear
6:35 PM 95.0 °F 44.6 °F 18% 29.85 in 10.0 mi NW 9.2 mph - N/A   Clear
6:55 PM 93.2 °F 46.4 °F 20% 29.86 in 10.0 mi NW 8.1 mph - N/A   Clear
7:15 PM 91.4 °F 46.4 °F 21% 29.86 in 10.0 mi NW 6.9 mph - N/A   Clear
7:35 PM 89.6 °F 46.4 °F 22% 29.87 in 10.0 mi NW 4.6 mph - N/A   Clear
7:55 PM 89.6 °F 44.6 °F 21% 29.87 in 10.0 mi NNW 5.8 mph - N/A   Clear
8:15 PM 86.0 °F 42.8 °F 22% 29.87 in 10.0 mi North 4.6 mph - N/A   Clear
8:35 PM 84.2 °F 42.8 °F 23% 29.88 in 10.0 mi Calm Calm - N/A   Clear
8:55 PM 82.4 °F 41.0 °F 23% 29.89 in 10.0 mi Calm Calm - N/A   Clear
9:15 PM 77.0 °F 41.0 °F 28% 29.90 in 10.0 mi Calm Calm - N/A   Clear
9:35 PM 75.2 °F 42.8 °F 31% 29.90 in 10.0 mi Calm Calm - N/A   Clear
9:55 PM 73.4 °F 39.2 °F 29% 29.91 in 10.0 mi South 5.8 mph - N/A   Clear
10:15 PM 71.6 °F 39.2 °F 31% 29.92 in 10.0 mi SSW 9.2 mph - N/A   Clear
10:35 PM 71.6 °F 39.2 °F 31% 29.92 in 10.0 mi SW 6.9 mph - N/A   Clear
10:55 PM 71.6 °F 41.0 °F 33% 29.92 in 10.0 mi WSW 4.6 mph - N/A   Clear
11:15 PM 71.6 °F 41.0 °F 33% 29.93 in 10.0 mi Calm Calm - N/A   Clear
11:35 PM 69.8 °F 39.2 °F 33% 29.93 in 10.0 mi SE 4.6 mph - N/A   Clear
11:55 PM 68.0 °F 37.4 °F 33% 29.93 in 10.0 mi South 3.5 mph - N/A   Clear